NKS4690 KFLL-MKJS

Flight info

Callsign NKS4690
Flight time 1h 17m
Altitude 35000
Route REGAE2 URSUS UL780 LEPEG/N0432F370 UL780 TASNO UM221 NIBEO DCT ADSEL LENAR7
Aircraft A320/M-SDE3FGHIRWY/LB1

Departure

Time 2026-05-05 19:32
Airport Fort Lauderdale Hollywood International Airport (KFLL)

Arrival

Time 2026-05-05 20:49
Airport Sangster International Airport (MKJS)
Time Latitude Longitude Altitude Speed Heading
2026-05-05 19:08 26.06882 -80.14341 16 ft 0 kts 359°
2026-05-05 19:21 26.06874 -80.14341 16 ft 2 kts 358°
2026-05-05 19:22 26.06858 -80.14340 18 ft 2 kts 354°
2026-05-05 19:22 26.06841 -80.14337 19 ft 2 kts 346°
2026-05-05 19:22 26.06826 -80.14331 16 ft 2 kts 321°
2026-05-05 19:22 26.06818 -80.14317 16 ft 2 kts 272°
2026-05-05 19:23 26.06817 -80.14312 16 ft 0 kts 270°
2026-05-05 19:26 26.06817 -80.14313 16 ft 2 kts 270°
2026-05-05 19:26 26.06818 -80.14361 16 ft 11 kts 270°
2026-05-05 19:26 26.06818 -80.14466 16 ft 15 kts 270°
2026-05-05 19:27 26.06793 -80.14576 17 ft 15 kts 212°
2026-05-05 19:27 26.06764 -80.14679 16 ft 15 kts 270°
2026-05-05 19:27 26.06766 -80.14807 16 ft 18 kts 271°
2026-05-05 19:27 26.06743 -80.14920 16 ft 9 kts 208°
2026-05-05 19:28 26.06713 -80.14924 18 ft 3 kts 193°
2026-05-05 19:28 26.06697 -80.14947 18 ft 5 kts 248°
2026-05-05 19:28 26.06692 -80.14997 19 ft 8 kts 269°
2026-05-05 19:28 26.06692 -80.15069 19 ft 12 kts 270°
2026-05-05 19:29 26.06693 -80.15166 21 ft 13 kts 270°
2026-05-05 19:29 26.06693 -80.15278 17 ft 18 kts 270°
2026-05-05 19:29 26.06692 -80.15417 17 ft 17 kts 270°
2026-05-05 19:29 26.06696 -80.15557 16 ft 19 kts 275°
2026-05-05 19:30 26.06698 -80.15712 16 ft 21 kts 269°
2026-05-05 19:30 26.06670 -80.15814 16 ft 9 kts 214°
2026-05-05 19:30 26.06609 -80.15819 18 ft 7 kts 153°
2026-05-05 19:30 26.06588 -80.15774 19 ft 1 kts 83°
2026-05-05 19:31 26.06590 -80.15731 20 ft 26 kts 89°
2026-05-05 19:31 26.06588 -80.15258 23 ft 93 kts 90°
2026-05-05 19:31 26.06582 -80.14324 68 ft 142 kts 90°
2026-05-05 19:31 26.06573 -80.13205 585 ft 146 kts 90°
2026-05-05 19:32 26.06589 -80.12023 1054 ft 160 kts 88°
2026-05-05 19:32 26.06613 -80.10772 1758 ft 165 kts 87°
2026-05-05 19:32 26.06652 -80.09475 2335 ft 178 kts 87°
2026-05-05 19:32 26.06684 -80.08036 2822 ft 194 kts 88°
2026-05-05 19:33 26.06689 -80.06486 3293 ft 207 kts 89°
2026-05-05 19:33 26.06701 -80.04822 3721 ft 225 kts 89°
2026-05-05 19:33 26.06717 -80.03011 4233 ft 243 kts 89°
2026-05-05 19:33 26.06732 -80.01062 4823 ft 261 kts 89°
2026-05-05 19:34 26.06734 -79.98977 5410 ft 278 kts 90°
2026-05-05 19:34 26.06714 -79.96783 6195 ft 287 kts 90°
2026-05-05 19:34 26.06686 -79.94546 7078 ft 291 kts 90°
2026-05-05 19:35 26.06626 -79.89999 8748 ft 301 kts 90°
2026-05-05 19:35 26.06600 -79.87649 9544 ft 307 kts 90°
2026-05-05 19:35 26.06577 -79.85251 10229 ft 316 kts 90°
2026-05-05 19:35 26.06493 -79.82746 10640 ft 333 kts 97°
2026-05-05 19:36 26.06110 -79.80147 11037 ft 348 kts 100°
2026-05-05 19:36 26.05688 -79.77456 11592 ft 357 kts 100°
2026-05-05 19:36 26.05258 -79.74717 12253 ft 362 kts 100°
2026-05-05 19:36 26.04829 -79.71981 12915 ft 366 kts 100°
2026-05-05 19:37 26.04391 -79.69174 13568 ft 371 kts 100°
2026-05-05 19:37 26.03948 -79.66326 14171 ft 376 kts 100°
2026-05-05 19:37 26.03394 -79.63468 14752 ft 380 kts 105°
2026-05-05 19:37 26.02703 -79.60617 15338 ft 384 kts 105°
2026-05-05 19:38 26.02007 -79.57736 15918 ft 388 kts 104°
2026-05-05 19:38 26.01242 -79.54844 16480 ft 392 kts 111°
2026-05-05 19:38 25.99965 -79.52164 17058 ft 395 kts 126°
2026-05-05 19:38 25.98133 -79.49892 17624 ft 396 kts 141°
2026-05-05 19:39 25.95890 -79.48189 18159 ft 397 kts 156°
2026-05-05 19:39 25.93315 -79.47109 18651 ft 396 kts 171°
2026-05-05 19:39 25.90606 -79.46517 19124 ft 398 kts 173°
2026-05-05 19:39 25.87863 -79.46029 19610 ft 399 kts 180°
2026-05-05 19:40 25.85103 -79.46070 20116 ft 396 kts 192°
2026-05-05 19:40 25.82426 -79.46688 20626 ft 392 kts 203°
2026-05-05 19:40 25.79925 -79.47836 21123 ft 387 kts 214°
2026-05-05 19:40 25.77649 -79.49412 21631 ft 387 kts 219°
2026-05-05 19:41 25.75424 -79.51036 22123 ft 390 kts 219°
2026-05-05 19:41 25.73147 -79.52690 22635 ft 392 kts 219°
2026-05-05 19:41 25.70852 -79.54350 23149 ft 395 kts 219°
2026-05-05 19:41 25.68541 -79.56021 23660 ft 398 kts 219°
2026-05-05 19:42 25.66332 -79.57850 24074 ft 397 kts 224°
2026-05-05 19:42 25.64157 -79.59757 24481 ft 400 kts 224°
2026-05-05 19:42 25.61971 -79.61677 24883 ft 402 kts 224°
2026-05-05 19:42 25.59773 -79.63608 25279 ft 405 kts 224°
2026-05-05 19:43 25.57554 -79.65555 25674 ft 408 kts 224°
2026-05-05 19:43 25.55353 -79.67484 26055 ft 411 kts 224°
2026-05-05 19:43 25.53104 -79.69450 26431 ft 413 kts 224°
2026-05-05 19:43 25.50842 -79.71426 26821 ft 416 kts 224°
2026-05-05 19:44 25.48563 -79.73417 27192 ft 418 kts 224°
2026-05-05 19:44 25.46270 -79.75420 27556 ft 421 kts 224°
2026-05-05 19:44 25.43962 -79.77435 27917 ft 424 kts 224°
2026-05-05 19:44 25.41641 -79.79459 28281 ft 427 kts 223°
2026-05-05 19:45 25.39156 -79.81235 28633 ft 437 kts 212°
2026-05-05 19:45 25.36293 -79.82473 29005 ft 449 kts 200°
2026-05-05 19:45 25.33174 -79.83037 29352 ft 461 kts 187°
2026-05-05 19:45 25.29942 -79.82850 29701 ft 472 kts 174°
2026-05-05 19:46 25.26732 -79.81950 30034 ft 479 kts 167°
2026-05-05 19:46 25.23523 -79.80908 30313 ft 483 kts 167°
2026-05-05 19:46 25.20283 -79.79865 30593 ft 486 kts 167°
2026-05-05 19:46 25.17028 -79.78824 30869 ft 489 kts 167°
2026-05-05 19:47 25.13745 -79.77781 31142 ft 492 kts 167°
2026-05-05 19:47 25.10484 -79.76745 31412 ft 496 kts 167°
2026-05-05 19:47 25.07159 -79.75691 31675 ft 499 kts 167°
2026-05-05 19:47 25.03824 -79.74631 32013 ft 500 kts 167°
2026-05-05 19:48 25.00482 -79.73566 32401 ft 500 kts 167°
2026-05-05 19:48 24.97136 -79.72500 32781 ft 501 kts 167°
2026-05-05 19:48 24.93784 -79.71430 33139 ft 502 kts 167°
2026-05-05 19:48 24.90454 -79.70262 33513 ft 504 kts 161°
2026-05-05 19:49 24.87311 -79.68645 33883 ft 507 kts 152°
2026-05-05 19:49 24.85276 -79.67270 34115 ft 509 kts 148°
2026-05-05 19:49 24.81333 -79.64469 34514 ft 510 kts 148°
2026-05-05 19:49 24.78350 -79.62365 34836 ft 510 kts 148°
2026-05-05 19:50 24.75358 -79.60264 34997 ft 510 kts 148°
2026-05-05 19:50 24.72399 -79.58192 35038 ft 498 kts 148°
2026-05-05 19:50 24.69481 -79.56150 35037 ft 497 kts 148°
2026-05-05 19:51 24.63649 -79.52063 35038 ft 497 kts 148°
2026-05-05 19:51 24.57828 -79.47971 35035 ft 497 kts 148°
2026-05-05 19:52 24.52009 -79.43892 35038 ft 496 kts 148°
2026-05-05 19:52 24.46222 -79.39844 35044 ft 496 kts 148°
2026-05-05 19:53 24.40405 -79.35772 35043 ft 496 kts 148°
2026-05-05 19:53 24.34590 -79.31706 35044 ft 496 kts 148°
2026-05-05 19:54 24.28777 -79.27641 35047 ft 495 kts 148°
2026-05-05 19:54 24.23043 -79.23543 35043 ft 495 kts 147°
2026-05-05 19:55 24.17297 -79.19388 35041 ft 495 kts 147°
2026-05-05 19:55 24.11549 -79.15235 35040 ft 495 kts 147°
2026-05-05 19:56 23.99990 -79.08158 35028 ft 490 kts 167°
2026-05-05 19:57 23.93377 -79.07123 35018 ft 480 kts 186°
2026-05-05 19:57 23.86708 -79.07294 35019 ft 479 kts 186°
2026-05-05 19:58 23.80041 -79.07438 35027 ft 479 kts 186°
2026-05-05 19:58 23.73414 -79.07571 35030 ft 479 kts 186°
2026-05-05 19:59 23.66756 -79.07720 35036 ft 479 kts 186°
2026-05-05 19:59 23.60096 -79.07878 35033 ft 478 kts 186°
2026-05-05 20:00 23.53440 -79.08027 35031 ft 478 kts 186°
2026-05-05 20:00 23.46791 -79.08165 35027 ft 478 kts 186°
2026-05-05 20:01 23.40191 -79.08313 35030 ft 478 kts 186°
2026-05-05 20:01 23.33545 -79.08459 35028 ft 477 kts 186°
2026-05-05 20:02 23.26908 -79.08605 35024 ft 477 kts 186°
2026-05-05 20:02 23.20278 -79.08758 35022 ft 477 kts 186°
2026-05-05 20:03 23.13688 -79.08905 35026 ft 476 kts 186°
2026-05-05 20:03 23.07060 -79.09046 35027 ft 476 kts 185°
2026-05-05 20:04 23.00435 -79.09189 35025 ft 476 kts 186°
2026-05-05 20:04 22.93820 -79.09339 35024 ft 476 kts 185°
2026-05-05 20:05 22.87244 -79.09482 35037 ft 475 kts 185°
2026-05-05 20:05 22.80608 -79.09628 35202 ft 481 kts 185°
2026-05-05 20:05 22.77257 -79.09707 35416 ft 484 kts 185°
2026-05-05 20:06 22.73884 -79.09784 35713 ft 484 kts 185°
2026-05-05 20:06 22.70520 -79.09858 36040 ft 483 kts 185°
2026-05-05 20:06 22.67160 -79.09928 36362 ft 483 kts 185°
2026-05-05 20:06 22.63804 -79.09998 36684 ft 482 kts 185°
2026-05-05 20:07 22.60495 -79.10072 36957 ft 482 kts 185°
2026-05-05 20:07 22.53806 -79.10225 37025 ft 480 kts 185°
2026-05-05 20:08 22.47126 -79.10367 37030 ft 480 kts 185°
2026-05-05 20:08 22.40457 -79.10506 37032 ft 479 kts 185°
2026-05-05 20:09 22.33846 -79.10652 37030 ft 478 kts 185°
2026-05-05 20:09 22.27192 -79.10801 37033 ft 478 kts 185°
2026-05-05 20:10 22.20548 -79.10945 37036 ft 477 kts 185°
2026-05-05 20:10 22.13911 -79.11042 37028 ft 478 kts 180°
2026-05-05 20:11 22.07353 -79.09900 37008 ft 483 kts 171°
2026-05-05 20:11 22.00771 -79.08429 37018 ft 483 kts 171°
2026-05-05 20:12 21.94180 -79.06972 37025 ft 483 kts 171°
2026-05-05 20:12 21.87592 -79.05516 37028 ft 483 kts 171°
2026-05-05 20:13 21.81006 -79.04058 37028 ft 483 kts 171°
2026-05-05 20:13 21.74467 -79.02610 37027 ft 483 kts 171°
2026-05-05 20:14 21.67883 -79.01159 37029 ft 483 kts 171°
2026-05-05 20:14 21.61305 -78.99706 37029 ft 482 kts 171°
2026-05-05 20:15 21.54735 -78.98253 37031 ft 482 kts 171°
2026-05-05 20:15 21.48165 -78.96812 37038 ft 481 kts 171°
2026-05-05 20:16 21.41645 -78.95383 37035 ft 481 kts 171°
2026-05-05 20:16 21.35093 -78.93938 37029 ft 480 kts 171°
2026-05-05 20:17 21.28549 -78.92499 37033 ft 480 kts 171°
2026-05-05 20:17 21.22015 -78.91063 37024 ft 479 kts 171°
2026-05-05 20:18 21.15538 -78.89648 37006 ft 478 kts 171°
2026-05-05 20:18 21.09015 -78.88223 37016 ft 478 kts 171°
2026-05-05 20:19 21.02508 -78.86796 37007 ft 477 kts 171°
2026-05-05 20:19 20.96003 -78.85377 37012 ft 477 kts 171°
2026-05-05 20:20 20.89499 -78.83954 37022 ft 477 kts 171°
2026-05-05 20:20 20.83047 -78.82542 37027 ft 476 kts 171°
2026-05-05 20:21 20.76562 -78.81127 37028 ft 475 kts 171°
2026-05-05 20:21 20.70084 -78.79724 37024 ft 475 kts 171°
2026-05-05 20:22 20.63609 -78.78327 37012 ft 475 kts 171°
2026-05-05 20:22 20.57185 -78.76919 37011 ft 474 kts 171°
2026-05-05 20:23 20.50718 -78.75513 37011 ft 474 kts 171°
2026-05-05 20:23 20.44253 -78.74111 37013 ft 474 kts 171°
2026-05-05 20:24 20.37792 -78.72713 37019 ft 473 kts 171°
2026-05-05 20:24 20.31328 -78.71309 36715 ft 482 kts 171°
2026-05-05 20:24 20.28045 -78.70599 36461 ft 480 kts 171°
2026-05-05 20:25 20.24778 -78.69892 36213 ft 479 kts 170°
2026-05-05 20:25 20.21519 -78.69186 35967 ft 477 kts 170°
2026-05-05 20:25 20.18275 -78.68484 35658 ft 473 kts 170°
2026-05-05 20:25 20.15055 -78.67789 35150 ft 471 kts 170°
2026-05-05 20:26 20.11847 -78.67096 34644 ft 470 kts 170°
2026-05-05 20:26 20.08647 -78.66406 34134 ft 469 kts 170°
2026-05-05 20:26 20.05499 -78.65728 33573 ft 467 kts 169°
2026-05-05 20:26 20.02321 -78.65043 33068 ft 464 kts 169°
2026-05-05 20:27 19.99170 -78.64366 32599 ft 460 kts 170°
2026-05-05 20:27 19.96041 -78.63711 32129 ft 457 kts 170°
2026-05-05 20:27 19.92930 -78.63078 31664 ft 454 kts 171°
2026-05-05 20:27 19.89837 -78.62461 31206 ft 451 kts 171°
2026-05-05 20:28 19.86766 -78.61853 30763 ft 448 kts 171°
2026-05-05 20:28 19.83715 -78.61244 30323 ft 445 kts 170°
2026-05-05 20:28 19.80719 -78.60642 29884 ft 443 kts 170°
2026-05-05 20:28 19.77706 -78.60036 29438 ft 439 kts 170°
2026-05-05 20:29 19.74720 -78.59435 29027 ft 435 kts 170°
2026-05-05 20:29 19.71764 -78.58836 28621 ft 431 kts 170°
2026-05-05 20:29 19.68826 -78.58243 28229 ft 428 kts 171°
2026-05-05 20:29 19.65909 -78.57657 27826 ft 425 kts 171°
2026-05-05 20:30 19.63010 -78.57075 27425 ft 423 kts 171°
2026-05-05 20:30 19.60125 -78.56496 27022 ft 421 kts 171°
2026-05-05 20:30 19.57253 -78.55916 26596 ft 419 kts 171°
2026-05-05 20:30 19.54431 -78.55344 26191 ft 417 kts 170°
2026-05-05 20:31 19.51586 -78.54769 25760 ft 416 kts 171°
2026-05-05 20:31 19.48749 -78.54198 25336 ft 414 kts 171°
2026-05-05 20:31 19.45920 -78.53632 24890 ft 413 kts 171°
2026-05-05 20:31 19.43098 -78.53069 24448 ft 412 kts 171°
2026-05-05 20:32 19.40283 -78.52507 23994 ft 411 kts 171°
2026-05-05 20:32 19.37475 -78.51943 23536 ft 411 kts 171°
2026-05-05 20:32 19.34673 -78.51381 23075 ft 407 kts 171°
2026-05-05 20:32 19.31904 -78.50828 22605 ft 404 kts 171°
2026-05-05 20:33 19.29195 -78.50284 22215 ft 399 kts 171°
2026-05-05 20:33 19.26476 -78.49736 21739 ft 396 kts 171°
2026-05-05 20:33 19.23790 -78.49197 21274 ft 389 kts 171°
2026-05-05 20:33 19.21182 -78.48673 20819 ft 374 kts 171°
2026-05-05 20:34 19.18678 -78.48168 20413 ft 359 kts 171°
2026-05-05 20:34 19.16266 -78.47684 20018 ft 349 kts 171°
2026-05-05 20:34 19.13888 -78.47209 19616 ft 348 kts 171°
2026-05-05 20:34 19.11515 -78.46736 19223 ft 346 kts 171°
2026-05-05 20:35 19.09183 -78.46273 18827 ft 345 kts 171°
2026-05-05 20:35 19.06824 -78.45801 18436 ft 344 kts 171°
2026-05-05 20:35 19.04471 -78.45331 18008 ft 343 kts 171°
2026-05-05 20:35 19.02133 -78.44862 17593 ft 341 kts 171°
2026-05-05 20:36 18.99816 -78.44395 17241 ft 337 kts 171°
2026-05-05 20:36 18.97535 -78.43873 16857 ft 335 kts 164°
2026-05-05 20:36 18.95398 -78.42907 16475 ft 335 kts 151°
2026-05-05 20:36 18.93513 -78.41473 16087 ft 334 kts 139°
2026-05-05 20:37 18.91908 -78.39703 15705 ft 333 kts 134°
2026-05-05 20:37 18.90868 -78.38513 15459 ft 332 kts 134°
2026-05-05 20:37 18.88789 -78.36153 14931 ft 330 kts 135°
2026-05-05 20:37 18.87222 -78.34385 14565 ft 329 kts 135°
2026-05-05 20:38 18.85660 -78.32624 14186 ft 328 kts 135°
2026-05-05 20:38 18.84108 -78.30872 13884 ft 323 kts 135°
2026-05-05 20:38 18.82587 -78.29180 13677 ft 315 kts 139°
2026-05-05 20:38 18.80734 -78.27918 12834 ft 324 kts 159°
2026-05-05 20:39 18.78594 -78.27048 12033 ft 334 kts 160°
2026-05-05 20:39 18.76436 -78.26185 11614 ft 326 kts 160°
2026-05-05 20:39 18.74362 -78.25357 10886 ft 322 kts 160°
2026-05-05 20:39 18.72277 -78.24524 10137 ft 319 kts 159°
2026-05-05 20:40 18.70230 -78.23704 9679 ft 306 kts 159°
2026-05-05 20:40 18.68281 -78.22924 9215 ft 295 kts 159°
2026-05-05 20:40 18.66403 -78.22172 8855 ft 286 kts 159°
2026-05-05 20:40 18.64552 -78.21430 8492 ft 284 kts 159°
2026-05-05 20:41 18.62709 -78.20692 8156 ft 282 kts 159°
2026-05-05 20:41 18.60878 -78.19957 7787 ft 281 kts 159°
2026-05-05 20:41 18.59078 -78.19233 7433 ft 280 kts 158°
2026-05-05 20:41 18.57263 -78.18502 7081 ft 279 kts 158°
2026-05-05 20:42 18.55464 -78.17780 6861 ft 270 kts 158°
2026-05-05 20:42 18.53748 -78.17092 6487 ft 260 kts 158°
2026-05-05 20:42 18.52087 -78.16425 6106 ft 251 kts 157°
2026-05-05 20:42 18.50514 -78.15726 5777 ft 240 kts 155°
2026-05-05 20:43 18.49031 -78.15018 5467 ft 228 kts 154°
2026-05-05 20:43 18.47622 -78.14334 5192 ft 221 kts 154°
2026-05-05 20:43 18.46247 -78.13669 4926 ft 219 kts 154°
2026-05-05 20:43 18.44880 -78.13009 4617 ft 213 kts 154°
2026-05-05 20:44 18.43574 -78.12366 4341 ft 202 kts 149°
2026-05-05 20:44 18.42631 -78.11369 4099 ft 189 kts 116°
2026-05-05 20:44 18.42366 -78.10046 3845 ft 189 kts 85°
2026-05-05 20:44 18.42775 -78.08739 3583 ft 189 kts 65°
2026-05-05 20:45 18.43886 -78.06235 3063 ft 186 kts 65°
2026-05-05 20:45 18.44415 -78.05028 2813 ft 177 kts 64°
2026-05-05 20:45 18.44906 -78.03906 2570 ft 160 kts 65°
2026-05-05 20:46 18.45356 -78.02875 2370 ft 154 kts 66°
2026-05-05 20:46 18.45786 -78.01884 2146 ft 140 kts 65°
2026-05-05 20:46 18.46174 -78.00989 1962 ft 131 kts 64°
2026-05-05 20:46 18.46552 -78.00119 1763 ft 131 kts 65°
2026-05-05 20:47 18.46928 -77.99253 1581 ft 130 kts 63°
2026-05-05 20:47 18.47310 -77.98373 1392 ft 130 kts 64°
2026-05-05 20:47 18.47682 -77.97513 1229 ft 130 kts 64°
2026-05-05 20:47 18.48052 -77.96663 1051 ft 128 kts 64°
2026-05-05 20:48 18.48426 -77.95807 847 ft 128 kts 67°
2026-05-05 20:48 18.48796 -77.94961 644 ft 127 kts 65°
2026-05-05 20:48 18.49183 -77.94126 472 ft 127 kts 68°
2026-05-05 20:48 18.49551 -77.93284 326 ft 126 kts 68°
2026-05-05 20:49 18.49888 -77.92424 104 ft 125 kts 68°
2026-05-05 20:49 18.50239 -77.91615 46 ft 109 kts 67°
2026-05-05 20:49 18.50476 -77.91087 41 ft 48 kts 63°
2026-05-05 20:49 18.50530 -77.90837 47 ft 33 kts 95°
2026-05-05 20:50 18.50504 -77.90685 43 ft 8 kts 155°
2026-05-05 20:50 18.50470 -77.90693 40 ft 8 kts 206°
2026-05-05 20:50 18.50432 -77.90766 46 ft 10 kts 242°
2026-05-05 20:50 18.50397 -77.90845 40 ft 13 kts 247°
2026-05-05 20:51 18.50356 -77.90944 43 ft 16 kts 246°
2026-05-05 20:51 18.50306 -77.91062 43 ft 19 kts 245°
2026-05-05 20:51 18.50244 -77.91196 45 ft 22 kts 244°
2026-05-05 20:51 18.50213 -77.91272 39 ft 8 kts 248°
2026-05-05 20:52 18.50186 -77.91337 45 ft 11 kts 244°
2026-05-05 20:52 18.50142 -77.91431 43 ft 17 kts 245°
2026-05-05 20:52 18.50092 -77.91548 42 ft 10 kts 244°
2026-05-05 20:52 18.50034 -77.91592 39 ft 12 kts 182°
2026-05-05 20:53 18.49983 -77.91619 42 ft 0 kts 210°
2026-05-05 20:53 18.49982 -77.91619 42 ft 0 kts 210°